Retour au catalogue

SL-12 R/B

AUX MOTOR

ActifHEO
NORAD 21012·ROCKET BODY·🇷🇺 Russia

Lancé Dec 8, 1990 depuis Baikonur Cosmodrome

Loading…

Prochains Passages (prochaines 24 heures)

TLE

FraisSource: Space-Track

Époque: Sep 13, 2026, 11:03 UTC

1 21012U 90110G   26256.46058661  .00001428  00000-0  60618-3 0  9993
2 21012  65.1456  33.8211 5704768   3.5790 359.1261  4.44737968209363

Suivez SL-12 R/B en temps réel avec AllMySat

Download on the App Store